レオナード彗星

C/2020 K3 ( Leonard )

English version
Home page
Updated on September 6, 2020

---------------------------------------------------------------------

・ プロフィール

発見日 2020年5月22日
発見光度 18.0等
発見者 Gregory J. Leonard (Catalina Sky Survey)

・ 写真集

・ 軌道要素

Epoch 2020 May 31.0 TT = JDT 2459000.5
T 2020 May 30.12186 TT                                  Rudenko
q   1.5934448            (2000.0)            P               Q
z  +0.0047601      Peri.   62.69764     +0.66556903     -0.65074602
 +/-0.0000022      Node    27.92772     -0.52922247     -0.75676090
e   0.9924150      Incl.  128.71542     +0.52625226     +0.06198837
From 206 observations 2019 Oct. 25-2020 Aug. 13, mean residual 0".6.

・ 光度変化

        m1 =  15.5 + 5 logΔ + 10.0 log r           [  ,-8]  (              〜2020年 5月22日)
        m1 = -20   + 5 logΔ + 60   log r(t + 300)  [-8,34]  (2020年 5月22日〜2020年 7月 3日)
        m1 =  15.5 + 5 logΔ + 10.0 log r           [34,  ]  (2020年 7月 3日〜              )

---------------------------------------------------------------------

軌道要素はM.P.E.C. 2020-R04に掲載されたものです。
光度グラフはComet for Windowsで作成したものです。

---------------------------------------------------------------------

Copyright(C) Seiichi Yoshida (comet@aerith.net). All rights reserved.